Time,TemperatureF,DewpointF,PressureIn,WindDirection,WindDirectionDegrees,WindSpeedMPH,WindSpeedGustMPH,Humidity,HourlyPrecipIn,Conditions,Clouds,dailyrainin,SoftwareType,DateUTC
2013-04-29 00:01:00,59.3,52.0,29.93,SSW,198,5.0,-999.0,76,-99.99,,,0.00,weatherlink.com 1.10,2013-04-29 05:01:00,
2013-04-29 00:16:00,59.4,52.0,29.93,SSW,201,4.0,-999.0,76,-99.99,,,0.00,weatherlink.com 1.10,2013-04-29 05:16:00,
2013-04-29 00:31:00,59.5,52.0,29.93,SW,217,5.0,-999.0,76,-99.99,,,0.00,weatherlink.com 1.10,2013-04-29 05:31:00,
2013-04-29 00:46:00,59.7,52.0,29.93,SW,228,4.0,-999.0,76,-99.99,,,0.00,weatherlink.com 1.10,2013-04-29 05:46:00,
2013-04-29 01:01:00,59.9,52.0,29.92,SW,223,2.0,-999.0,76,-99.99,,,0.00,weatherlink.com 1.10,2013-04-29 06:01:00,
2013-04-29 01:16:00,60.0,52.0,29.91,SW,223,5.0,-999.0,76,-99.99,,,0.00,weatherlink.com 1.10,2013-04-29 06:16:00,
2013-04-29 01:31:00,59.8,52.0,29.92,WSW,244,3.0,-999.0,76,-99.99,,,0.00,weatherlink.com 1.10,2013-04-29 06:31:00,
2013-04-29 01:46:00,59.4,52.0,29.91,SW,224,3.0,-999.0,76,-99.99,,,0.00,weatherlink.com 1.10,2013-04-29 06:46:00,
2013-04-29 02:01:00,59.4,52.0,29.91,SW,224,5.0,-999.0,76,-99.99,,,0.00,weatherlink.com 1.10,2013-04-29 07:01:00,
2013-04-29 02:16:00,59.2,52.0,29.91,WSW,239,3.0,-999.0,76,-99.99,,,0.00,weatherlink.com 1.10,2013-04-29 07:16:00,
2013-04-29 02:31:00,59.1,52.0,29.91,SW,231,4.0,-999.0,76,-99.99,,,0.00,weatherlink.com 1.10,2013-04-29 07:31:00,
2013-04-29 02:46:00,58.9,51.0,29.90,SW,222,4.0,-999.0,76,-99.99,,,0.00,weatherlink.com 1.10,2013-04-29 07:46:00,
2013-04-29 03:01:00,58.6,51.0,29.90,SSW,192,7.0,-999.0,76,-99.99,,,0.00,weatherlink.com 1.10,2013-04-29 08:01:00,
2013-04-29 03:16:00,58.6,51.0,29.90,SW,228,0.0,-999.0,76,-99.99,,,0.00,weatherlink.com 1.10,2013-04-29 08:16:00,
2013-04-29 03:31:00,58.5,51.0,29.90,WSW,237,6.0,-999.0,76,-99.99,,,0.00,weatherlink.com 1.10,2013-04-29 08:31:00,
2013-04-29 03:46:00,58.0,51.0,29.90,WSW,246,8.0,-999.0,77,-99.99,,,0.00,weatherlink.com 1.10,2013-04-29 08:46:00,
2013-04-29 04:01:00,57.8,51.0,29.89,WSW,240,3.0,-999.0,77,-99.99,,,0.00,weatherlink.com 1.10,2013-04-29 09:01:00,
2013-04-29 04:16:00,57.7,50.0,29.90,SW,223,4.0,-999.0,76,-99.99,,,0.00,weatherlink.com 1.10,2013-04-29 09:16:00,
2013-04-29 04:31:00,57.9,51.0,29.90,SW,229,4.0,-999.0,77,-99.99,,,0.00,weatherlink.com 1.10,2013-04-29 09:31:00,
2013-04-29 04:46:00,58.1,51.0,29.90,SW,234,6.0,-999.0,76,-99.99,,,0.00,weatherlink.com 1.10,2013-04-29 09:46:00,
2013-04-29 05:01:00,58.1,51.0,29.90,SW,234,5.0,-999.0,76,-99.99,,,0.00,weatherlink.com 1.10,2013-04-29 10:01:00,
2013-04-29 05:16:00,57.7,50.0,29.91,WSW,240,4.0,-999.0,76,-99.99,,,0.00,weatherlink.com 1.10,2013-04-29 10:16:00,
2013-04-29 05:31:00,57.2,50.0,29.91,SW,232,1.0,-999.0,77,-99.99,,,0.00,weatherlink.com 1.10,2013-04-29 10:31:00,
2013-04-29 05:46:00,56.9,49.0,29.91,SW,232,5.0,-999.0,76,-99.99,,,0.00,weatherlink.com 1.10,2013-04-29 10:46:00,
2013-04-29 06:01:00,56.7,49.0,29.92,SW,232,1.0,-999.0,76,-99.99,,,0.00,weatherlink.com 1.10,2013-04-29 11:01:00,
2013-04-29 06:16:00,56.5,49.0,29.93,SW,221,5.0,-999.0,76,-99.99,,,0.00,weatherlink.com 1.10,2013-04-29 11:16:00,
2013-04-29 06:31:00,56.4,49.0,29.93,SW,232,1.0,-999.0,76,-99.99,,,0.00,weatherlink.com 1.10,2013-04-29 11:31:00,
2013-04-29 06:46:00,56.7,49.0,29.93,SW,219,3.0,-999.0,76,-99.99,,,0.00,weatherlink.com 1.10,2013-04-29 11:46:00,
2013-04-29 07:01:00,57.3,50.0,29.94,SW,233,0.0,-999.0,76,-99.99,,,0.00,weatherlink.com 1.10,2013-04-29 12:01:00,
2013-04-29 07:16:00,58.1,51.0,29.94,SW,221,3.0,-999.0,76,-99.99,,,0.00,weatherlink.com 1.10,2013-04-29 12:16:00,
2013-04-29 07:31:00,59.1,52.0,29.94,SW,225,2.0,-999.0,76,-99.99,,,0.00,weatherlink.com 1.10,2013-04-29 12:31:00,
2013-04-29 07:46:00,59.7,52.0,29.94,WSW,239,0.0,-999.0,76,-99.99,,,0.00,weatherlink.com 1.10,2013-04-29 12:46:00,
2013-04-29 08:01:00,61.1,53.0,29.95,SW,232,4.0,-999.0,74,-99.99,,,0.00,weatherlink.com 1.10,2013-04-29 13:01:00,
2013-04-29 08:16:00,62.4,54.0,29.95,SSW,211,0.0,-999.0,73,-99.99,,,0.00,weatherlink.com 1.10,2013-04-29 13:16:00,
2013-04-29 08:31:00,63.6,54.0,29.95,SSW,202,0.0,-999.0,71,-99.99,,,0.00,weatherlink.com 1.10,2013-04-29 13:31:00,
2013-04-29 08:46:00,64.6,54.0,29.95,SW,217,0.0,-999.0,69,-99.99,,,0.00,weatherlink.com 1.10,2013-04-29 13:46:00,
2013-04-29 09:01:00,65.2,54.0,29.95,SW,219,0.0,-999.0,68,-99.99,,,0.00,weatherlink.com 1.10,2013-04-29 14:01:00,
2013-04-29 09:16:00,65.9,55.0,29.95,SW,229,0.0,-999.0,67,-99.99,,,0.00,weatherlink.com 1.10,2013-04-29 14:16:00,
2013-04-29 09:31:00,66.8,55.0,29.95,SSW,209,4.0,-999.0,66,-99.99,,,0.00,weatherlink.com 1.10,2013-04-29 14:31:00,
2013-04-29 09:46:00,67.6,56.0,29.94,SW,214,0.0,-999.0,67,-99.99,,,0.00,weatherlink.com 1.10,2013-04-29 14:46:00,
2013-04-29 10:01:00,68.1,56.0,29.95,SW,219,0.0,-999.0,65,-99.99,,,0.00,weatherlink.com 1.10,2013-04-29 15:01:00,
2013-04-29 10:16:00,68.8,56.0,29.95,SW,225,0.0,-999.0,65,-99.99,,,0.00,weatherlink.com 1.10,2013-04-29 15:16:00,
2013-04-29 10:31:00,68.8,57.0,29.96,SSW,208,0.0,-999.0,66,-99.99,,,0.00,weatherlink.com 1.10,2013-04-29 15:31:00,
2013-04-29 10:46:00,69.7,58.0,29.95,SW,217,0.0,-999.0,67,-99.99,,,0.00,weatherlink.com 1.10,2013-04-29 15:46:00,
2013-04-29 11:01:00,69.5,58.0,29.96,SSW,212,0.0,-999.0,66,-99.99,,,0.00,weatherlink.com 1.10,2013-04-29 16:01:00,
2013-04-29 11:16:00,70.1,59.0,29.95,SW,224,0.0,-999.0,67,-99.99,,,0.00,weatherlink.com 1.10,2013-04-29 16:16:00,
2013-04-29 11:31:00,70.3,59.0,29.94,SW,234,0.0,-999.0,68,-99.99,,,0.00,weatherlink.com 1.10,2013-04-29 16:31:00,
2013-04-29 11:46:00,71.3,60.0,29.94,SSW,198,0.0,-999.0,68,-99.99,,,0.00,weatherlink.com 1.10,2013-04-29 16:46:00,
2013-04-29 12:01:00,72.4,61.0,29.93,South,182,3.0,-999.0,67,-99.99,,,0.00,weatherlink.com 1.10,2013-04-29 17:01:00,
2013-04-29 12:16:00,72.6,61.0,29.93,SSW,197,0.0,-999.0,68,-99.99,,,0.00,weatherlink.com 1.10,2013-04-29 17:16:00,
2013-04-29 12:31:00,72.9,61.0,29.92,SSW,201,0.0,-999.0,67,-99.99,,,0.00,weatherlink.com 1.10,2013-04-29 17:31:00,
2013-04-29 12:46:00,74.7,61.0,29.92,SW,227,4.0,-999.0,63,-99.99,,,0.00,weatherlink.com 1.10,2013-04-29 17:46:00,
2013-04-29 13:01:00,74.9,61.0,29.91,SSW,205,2.0,-999.0,63,-99.99,,,0.00,weatherlink.com 1.10,2013-04-29 18:01:00,
2013-04-29 13:16:00,75.7,62.0,29.91,SSW,205,0.0,-999.0,62,-99.99,,,0.00,weatherlink.com 1.10,2013-04-29 18:16:00,
2013-04-29 13:31:00,76.0,61.0,29.90,SW,216,1.0,-999.0,61,-99.99,,,0.00,weatherlink.com 1.10,2013-04-29 18:31:00,
2013-04-29 13:46:00,77.4,62.0,29.90,SSW,200,3.0,-999.0,59,-99.99,,,0.00,weatherlink.com 1.10,2013-04-29 18:46:00,
2013-04-29 14:01:00,78.1,62.0,29.89,SW,219,0.0,-999.0,59,-99.99,,,0.00,weatherlink.com 1.10,2013-04-29 19:01:00,
2013-04-29 14:16:00,78.5,60.0,29.88,SW,227,1.0,-999.0,53,-99.99,,,0.00,weatherlink.com 1.10,2013-04-29 19:16:00,
2013-04-29 14:31:00,79.1,60.0,29.88,South,190,0.0,-999.0,53,-99.99,,,0.00,weatherlink.com 1.10,2013-04-29 19:31:00,
2013-04-29 14:46:00,79.9,59.0,29.87,WSW,240,0.0,-999.0,49,-99.99,,,0.00,weatherlink.com 1.10,2013-04-29 19:46:00,
2013-04-29 15:01:00,80.0,59.0,29.86,South,184,0.0,-999.0,49,-99.99,,,0.00,weatherlink.com 1.10,2013-04-29 20:01:00,
2013-04-29 15:16:00,80.2,59.0,29.86,South,173,0.0,-999.0,48,-99.99,,,0.00,weatherlink.com 1.10,2013-04-29 20:16:00,
2013-04-29 15:31:00,79.8,58.0,29.85,South,174,0.0,-999.0,47,-99.99,,,0.00,weatherlink.com 1.10,2013-04-29 20:31:00,
2013-04-29 15:46:00,80.1,57.0,29.84,SW,234,3.0,-999.0,45,-99.99,,,0.00,weatherlink.com 1.10,2013-04-29 20:46:00,
2013-04-29 16:01:00,80.0,59.0,29.84,SSW,197,0.0,-999.0,48,-99.99,,,0.00,weatherlink.com 1.10,2013-04-29 21:01:00,
2013-04-29 16:16:00,79.6,59.0,29.83,SSE,168,1.0,-999.0,49,-99.99,,,0.00,weatherlink.com 1.10,2013-04-29 21:16:00,
2013-04-29 16:31:00,79.0,59.0,29.83,South,173,0.0,-999.0,51,-99.99,,,0.00,weatherlink.com 1.10,2013-04-29 21:31:00,
2013-04-29 16:46:00,78.5,60.0,29.83,South,173,0.0,-999.0,54,-99.99,,,0.00,weatherlink.com 1.10,2013-04-29 21:46:00,
2013-04-29 17:01:00,77.6,60.0,29.82,South,181,0.0,-999.0,54,-99.99,,,0.00,weatherlink.com 1.10,2013-04-29 22:01:00,
2013-04-29 17:16:00,78.0,60.0,29.82,SW,215,0.0,-999.0,55,-99.99,,,0.00,weatherlink.com 1.10,2013-04-29 22:16:00,
2013-04-29 17:31:00,77.8,60.0,29.82,South,178,7.0,-999.0,54,-99.99,,,0.00,weatherlink.com 1.10,2013-04-29 22:31:00,
2013-04-29 17:46:00,77.4,60.0,29.82,South,186,6.0,-999.0,55,-99.99,,,0.00,weatherlink.com 1.10,2013-04-29 22:46:00,
2013-04-29 18:01:00,76.8,59.0,29.81,SSW,207,4.0,-999.0,55,-99.99,,,0.00,weatherlink.com 1.10,2013-04-29 23:01:00,
2013-04-29 18:17:00,76.4,59.0,29.81,SW,215,3.0,-999.0,56,-99.99,,,0.00,weatherlink.com 1.10,2013-04-29 23:17:00,
2013-04-29 18:31:00,76.0,59.0,29.81,SSW,208,2.0,-999.0,55,-99.99,,,0.00,weatherlink.com 1.10,2013-04-29 23:31:00,
2013-04-29 18:47:00,75.6,59.0,29.81,SSW,207,7.0,-999.0,57,-99.99,,,0.00,weatherlink.com 1.10,2013-04-29 23:47:00,
2013-04-29 19:01:00,74.9,59.0,29.81,South,177,5.0,-999.0,58,-99.99,,,0.00,weatherlink.com 1.10,2013-04-30 00:01:00,
2013-04-29 19:17:00,74.2,58.0,29.81,SSW,203,6.0,-999.0,58,-99.99,,,0.00,weatherlink.com 1.10,2013-04-30 00:17:00,
2013-04-29 19:32:00,73.4,58.0,29.81,SSW,204,6.0,-999.0,58,-99.99,,,0.00,weatherlink.com 1.10,2013-04-30 00:32:00,
2013-04-29 19:47:00,72.7,57.0,29.81,SW,217,4.0,-999.0,58,-99.99,,,0.00,weatherlink.com 1.10,2013-04-30 00:47:00,
2013-04-29 20:02:00,72.3,57.0,29.81,SSW,195,5.0,-999.0,59,-99.99,,,0.00,weatherlink.com 1.10,2013-04-30 01:02:00,
2013-04-29 20:17:00,71.9,56.0,29.81,SW,216,4.0,-999.0,58,-99.99,,,0.00,weatherlink.com 1.10,2013-04-30 01:17:00,
2013-04-29 20:32:00,71.9,56.0,29.82,SW,218,7.0,-999.0,57,-99.99,,,0.00,weatherlink.com 1.10,2013-04-30 01:32:00,
2013-04-29 20:47:00,71.8,56.0,29.82,SSW,207,5.0,-999.0,58,-99.99,,,0.00,weatherlink.com 1.10,2013-04-30 01:47:00,
2013-04-29 21:02:00,71.4,57.0,29.82,SSW,213,4.0,-999.0,60,-99.99,,,0.00,weatherlink.com 1.10,2013-04-30 02:02:00,
2013-04-29 21:17:00,71.2,56.0,29.82,SW,219,2.0,-999.0,60,-99.99,,,0.00,weatherlink.com 1.10,2013-04-30 02:17:00,
2013-04-29 21:32:00,70.8,57.0,29.83,SSW,209,6.0,-999.0,61,-99.99,,,0.00,weatherlink.com 1.10,2013-04-30 02:32:00,
2013-04-29 21:47:00,70.3,57.0,29.83,SW,216,4.0,-999.0,63,-99.99,,,0.00,weatherlink.com 1.10,2013-04-30 02:47:00,
2013-04-29 22:02:00,70.2,57.0,29.83,SSW,200,7.0,-999.0,63,-99.99,,,0.00,weatherlink.com 1.10,2013-04-30 03:02:00,
2013-04-29 22:17:00,70.1,57.0,29.83,SW,231,5.0,-999.0,63,-99.99,,,0.00,weatherlink.com 1.10,2013-04-30 03:17:00,
2013-04-29 22:32:00,69.9,57.0,29.83,SW,225,7.0,-999.0,63,-99.99,,,0.00,weatherlink.com 1.10,2013-04-30 03:32:00,
2013-04-29 22:47:00,69.9,57.0,29.83,SSW,195,6.0,-999.0,63,-99.99,,,0.00,weatherlink.com 1.10,2013-04-30 03:47:00,
2013-04-29 23:02:00,69.7,56.0,29.83,SSW,198,7.0,-999.0,62,-99.99,,,0.00,weatherlink.com 1.10,2013-04-30 04:02:00,
2013-04-29 23:17:00,69.4,56.0,29.83,SSW,205,10.0,-999.0,62,-99.99,,,0.00,weatherlink.com 1.10,2013-04-30 04:17:00,
2013-04-29 23:32:00,69.2,55.0,29.83,SW,214,5.0,-999.0,62,-99.99,,,0.00,weatherlink.com 1.10,2013-04-30 04:32:00,
2013-04-29 23:47:00,69.0,55.0,29.83,SW,229,4.0,-999.0,62,-99.99,,,0.00,weatherlink.com 1.10,2013-04-30 04:47:00,